Helicity
13 9 13 46 49 47 47 52 57 48 40 52 59 50 45 43 27 19 1 15 20 27 19 18 20 22 26 29 33 37 41 41 41
18 20 20 41 48 46 43 51 54 51 46 37 42 39 40 45 24 8 21 12 28 25 22 18 18 20 22 28 30 32 35 38 39
31 34 42 49 45 41 39 42 45 33 26 26 26 28 33 43 35 23 15 24 35 29 23 18 17 19 22 24 27 29 31 32 31
44 48 52 54 47 43 35 23 28 23 13 7 14 20 25 34 25 32 20 24 35 34 29 21 17 16 17 21 24 29 28 28 30
52 57 48 46 56 55 47 29 24 27 18 8 6 8 12 19 27 20 34 22 36 36 32 26 21 19 20 21 25 25 24 27 29
64 57 54 52 51 56 58 47 36 32 29 21 25 14 21 17 29 29 18 27 40 43 39 32 25 22 20 18 21 20 20 27 28
79 68 57 49 55 63 59 52 56 48 50 48 37 44 31 31 29 31 14 12 37 45 45 39 34 30 25 23 22 19 17 21 23
100 98 90 90 70 87 76 76 78 77 79 61 52 47 42 39 40 35 14 33 25 46 48 46 40 37 36 34 28 26 25 24 20
111 114 94 103 110 102 102 106 93 86 82 77 65 55 55 54 53 42 25 44 24 49 51 53 45 38 36 33 31 29 26 25 20
124 113 118 135 137 112 115 109 109 99 86 84 84 75 69 59 63 65 30 61 55 56 67 51 51 45 39 41 37 33 29 29 28
138 129 124 147 140 128 137 135 115 98 95 84 88 85 90 81 72 79 75 55 82 69 70 55 43 39 37 33 34 41 39 35 35
125 148 147 136 123 116 118 96 105 101 93 67 71 95 103 96 83 86 103 113 91 105 81 75 69 58 42 35 34 49 62 53 48
145 149 139 132 116 108 113 114 117 109 115 112 101 69 81 101 112 109 122 129 137 107 80 96 88 78 60 44 38 27 40 61 63
99 122 117 142 134 109 98 105 110 97 86 85 83 87 91 104 117 113 110 147 161 157 123 123 110 101 84 53 39 39 43 57 75
88 104 89 134 139 122 122 98 87 83 78 80 73 75 92 104 124 110 121 123 157 167 150 164 144 108 93 70 58 51 51 56 81
93 143 136 154 155 127 113 114 94 96 100 104 77 73 81 96 105 114 134 142 158 187 181 185 209 176 134 113 83 70 64 66 78
101 127 154 134 150 145 129 120 122 111 110 93 75 41 65 112 128 147 153 145 145 171 168 182 185 203 223 202 133 104 83 50 63
82 136 167 164 159 145 129 126 121 119 108 105 115 73 18 43 55 62 107 132 161 177 171 195 205 208 206 241 210 177 119 84 15
107 113 150 125 117 113 121 116 112 113 95 98 126 150 160 106 31 94 134 135 152 159 165 147 158 158 218 192 230 226 159 55 12
131 172 184 155 135 143 131 135 115 97 90 85 95 116 142 153 171 96 100 158 183 196 161 152 157 159 170 165 162 166 148 61 33
Wind_Speed
18 21 25 15 18 20 21 22 23 23 22 21 20 21 24 27 25 21 22 25 26 27 29 29 30 30 31 32 33 34 35 36 37
15 19 23 17 18 20 20 20 19 19 19 20 19 20 23 26 23 19 20 23 24 25 26 26 27 28 30 31 32 33 34 35 36
15 17 16 16 18 20 21 20 18 18 18 18 17 19 22 26 25 16 18 20 22 23 25 25 26 27 28 29 30 31 32 33 35
17 16 11 9 13 19 22 24 23 21 21 20 19 19 20 24 27 16 17 17 20 21 23 24 25 27 27 28 28 29 30 31 33
23 18 18 12 11 13 18 21 23 24 26 27 25 24 27 27 25 20 17 15 19 21 22 23 24 24 25 26 26 27 28 30 31
30 27 21 17 14 12 12 17 23 24 26 29 24 28 34 34 30 27 18 14 19 21 22 22 24 24 26 27 27 26 27 28 29
29 33 27 23 20 18 18 16 19 24 30 31 30 32 34 36 35 33 32 17 20 22 22 23 24 25 25 26 27 27 27 27 27
39 37 39 33 28 28 25 25 25 23 26 34 38 40 41 41 40 38 40 22 22 23 24 23 24 24 24 24 25 25 25 25 25
40 41 40 34 31 28 27 28 30 30 29 31 37 40 42 46 48 46 43 29 23 26 25 25 25 25 24 25 26 26 25 25 25
45 42 41 38 34 33 32 31 31 30 32 33 37 39 39 43 49 53 46 35 28 29 28 28 27 26 25 24 25 24 24 22 23
43 45 45 40 38 41 40 40 39 38 38 40 41 40 38 39 44 49 49 46 34 36 35 35 35 33 30 28 27 27 25 24 24
53 46 46 43 40 42 44 47 47 48 49 51 51 48 44 42 40 42 39 38 30 30 36 38 38 38 35 31 32 32 29 29 28
55 53 51 46 45 46 48 49 52 54 55 58 57 55 52 49 47 48 43 39 38 29 27 28 33 39 39 35 33 35 37 32 28
60 61 56 50 46 48 50 49 50 55 58 62 62 61 62 62 60 58 57 53 48 45 40 34 33 33 35 35 37 36 37 34 29
66 67 63 54 51 49 49 50 52 55 58 62 66 66 64 63 62 62 62 59 53 50 50 47 40 38 38 39 38 37 37 31 33
69 66 60 54 52 48 47 51 55 58 57 64 70 72 70 70 68 65 65 62 57 57 52 50 49 49 43 42 39 42 42 37 46
69 66 59 58 53 50 48 48 54 57 54 60 65 75 72 69 66 64 64 63 62 61 56 56 54 54 53 47 43 43 42 46 47
65 60 58 54 50 51 51 53 55 60 57 53 58 70 75 73 66 65 64 64 63 61 61 59 59 58 56 51 49 47 48 49 50
59 57 56 49 46 51 53 55 58 59 68 62 57 62 71 86 96 73 70 66 67 68 65 66 62 61 59 56 51 50 52 53 50
57 53 54 46 45 49 53 56 62 64 69 69 69 67 66 69 80 99 85 75 70 67 67 70 70 65 63 62 60 54 50 50 52
Wind_Direction
340 333 327 352 5 9 19 32 41 52 45 37 22 12 1 354 359 39 33 16 14 10 11 12 13 12 11 11 11 11 12 13 12
350 335 324 328 336 344 353 4 18 28 38 47 23 3 352 351 5 43 30 17 14 13 14 15 14 13 11 9 8 10 10 11 11
335 340 339 326 327 332 333 339 347 353 2 13 23 4 351 341 351 34 27 26 17 8 3 4 4 5 6 6 8 7 7 7 7
320 326 341 347 336 324 323 322 319 324 330 336 348 357 357 342 339 6 6 17 8 6 2 360 356 354 354 357 360 3 5 5 5
304 307 310 318 330 330 323 320 318 315 311 311 318 323 326 328 338 344 355 2 357 355 353 353 354 356 356 356 357 357 358 358 0
294 296 299 302 306 315 322 318 315 311 308 306 311 308 307 311 319 329 343 346 343 345 345 345 345 345 344 344 346 349 351 352 354
289 288 289 291 292 296 301 308 313 306 301 301 301 303 306 306 305 312 319 331 332 334 337 336 336 336 337 338 339 341 343 346 349
285 287 285 285 286 290 291 296 301 303 300 296 295 295 297 299 300 302 304 311 317 326 329 330 329 329 331 332 333 334 337 341 343
281 282 281 282 284 284 286 290 295 297 298 297 295 295 295 294 294 294 300 302 302 312 318 322 322 324 325 326 326 327 329 332 334
279 279 280 279 282 282 283 287 292 295 295 296 295 295 295 297 294 292 293 299 293 301 307 311 313 314 317 319 321 322 324 325 329
274 275 278 276 279 282 281 284 288 291 294 295 295 297 296 295 297 296 294 294 292 293 298 302 304 305 308 310 313 313 314 316 318
276 274 274 274 278 282 282 283 286 289 292 291 292 295 297 296 295 298 298 296 288 285 290 295 297 298 301 301 303 304 307 310 310
274 275 272 273 279 280 281 282 283 286 287 289 292 294 294 295 295 297 297 295 296 282 255 273 286 293 295 295 296 300 303 306 306
274 272 272 270 274 278 280 282 284 286 288 289 292 292 291 291 293 294 295 295 292 290 287 273 269 277 285 288 291 292 296 301 302
273 269 267 268 272 275 279 282 283 287 290 292 292 293 293 293 293 294 295 295 292 290 289 289 281 270 276 282 284 285 287 286 292
268 264 264 264 269 276 279 282 285 287 292 293 293 293 293 293 293 293 293 293 291 291 290 289 286 286 273 271 272 280 283 281 292
265 264 265 264 267 272 279 284 287 289 292 294 297 295 296 296 295 294 294 293 293 292 288 288 285 286 286 279 268 270 273 287 291
264 266 268 268 270 273 278 283 285 288 293 294 296 298 296 301 301 297 295 295 295 294 292 289 286 285 285 282 278 272 274 285 287
262 263 266 267 274 278 282 283 285 289 290 296 296 296 298 297 295 298 296 294 294 294 292 291 290 285 284 283 283 279 278 283 284
259 259 261 278 280 285 286 289 287 290 291 294 298 299 299 298 295 292 294 294 293 292 291 291 290 288 285 285 286 285 278 277 283